CAPE
0 0 0 0 0 0 0 0 0 0 0 0 0 0 0 0 0 0 0 0 0 0 0 0 0 0 0 0 0 0 0 0 0 0 0 0 0 0 0 0 0 0 0 0 0
0 0 0 0 0 0 0 0 0 0 0 0 0 0 0 0 0 0 0 0 0 0 0 0 0 0 0 0 0 0 0 0 0 0 0 0 0 0 0 0 0 0 0 0 0
0 0 0 0 0 0 0 0 0 0 0 0 0 0 0 0 0 0 0 0 0 0 0 0 0 0 0 0 0 0 0 0 0 0 0 0 0 0 0 0 0 0 0 0 0
0 0 0 0 0 0 0 0 0 0 0 0 0 0 0 0 0 0 0 0 0 0 0 0 0 0 0 0 0 0 0 0 0 0 0 0 0 0 0 0 0 0 0 0 0
0 0 0 0 0 0 0 0 0 0 0 0 0 0 0 0 0 0 0 0 0 0 0 0 0 0 0 0 0 0 0 0 0 0 0 0 0 0 0 0 0 0 0 0 0
0 0 0 0 0 0 0 0 0 0 0 0 0 0 0 0 0 0 0 0 0 0 0 0 0 0 0 0 0 0 0 0 0 0 0 0 0 0 0 0 0 0 0 0 0
0 0 0 0 0 0 0 0 0 0 0 0 0 0 0 0 0 0 0 0 0 0 0 0 0 0 0 0 0 0 0 0 0 0 0 0 0 0 0 0 0 0 0 0 0
0 0 0 0 0 0 0 0 0 0 0 0 0 0 0 0 0 0 0 0 0 0 0 0 0 0 0 0 0 0 0 0 0 0 0 0 0 0 0 0 0 0 0 0 0
0 0 0 0 0 0 0 0 0 0 0 0 0 0 0 0 0 0 0 0 0 0 0 0 0 0 0 0 0 0 0 0 0 0 0 0 0 0 0 0 0 0 0 0 0
0 0 0 0 0 0 0 0 0 0 0 0 0 0 0 0 0 0 0 0 0 0 0 0 0 0 0 0 0 0 0 0 0 0 0 0 0 0 0 0 0 0 0 0 0
0 0 0 0 0 0 0 0 0 0 0 0 0 0 0 0 0 0 0 0 0 0 0 0 0 0 0 0 0 0 0 0 0 0 0 0 0 0 0 0 0 0 0 0 0
0 0 0 0 0 0 0 0 0 0 0 0 0 0 0 0 0 0 0 0 0 0 0 0 0 0 0 0 0 0 0 0 0 0 0 0 0 0 0 0 0 0 0 0 0
0 0 0 0 0 0 0 0 0 0 0 0 0 0 0 0 0 0 0 0 0 0 0 0 0 0 0 0 0 0 0 0 0 0 0 0 0 0 0 0 0 0 0 0 0
0 0 0 0 0 0 0 0 0 0 0 0 0 0 0 0 0 0 0 0 0 0 0 0 0 0 0 0 0 0 0 0 0 0 0 0 0 0 0 0 0 0 0 0 0
0 0 0 0 0 0 0 0 0 0 0 0 0 0 0 0 0 0 0 0 0 0 0 0 0 0 0 0 0 0 0 0 0 0 0 0 0 0 0 0 0 0 0 0 0
0 0 0 0 0 0 0 0 0 0 0 0 0 0 0 0 0 0 0 0 0 0 0 0 0 0 0 0 0 0 0 0 0 0 0 0 0 0 0 0 0 0 0 0 0
0 0 0 0 0 0 0 0 0 0 0 0 0 0 0 0 0 0 0 0 0 0 0 0 0 0 0 0 0 0 0 0 0 0 0 0 0 0 0 0 0 0 0 0 0
0 0 0 0 0 0 0 0 0 0 0 0 0 0 0 0 0 0 0 0 0 0 0 0 0 0 0 0 0 0 0 0 0 0 0 0 0 0 0 0 0 0 0 0 0
0 0 0 0 0 0 0 0 0 0 0 0 0 0 0 0 0 0 0 0 0 0 0 0 0 0 0 0 0 0 0 0 0 0 0 0 0 0 0 0 0 0 0 0 0
0 0 0 0 0 0 0 0 0 0 0 0 0 0 0 0 0 0 0 0 0 0 0 0 0 0 0 0 0 0 0 0 0 0 0 0 0 0 0 0 0 0 0 0 0
0 0 0 0 0 0 0 0 0 0 0 0 0 0 0 0 0 0 0 0 0 0 0 0 0 0 0 0 0 0 0 0 0 0 0 0 0 0 0 0 0 0 0 0 0
0 0 0 0 0 0 0 0 0 0 0 0 0 0 0 0 0 0 0 0 0 0 0 0 0 0 0 0 0 0 0 0 0 0 0 0 0 0 0 0 0 0 0 0 0
0 0 0 0 0 0 0 0 0 0 0 0 0 0 0 0 0 0 0 0 0 0 0 0 0 0 0 0 0 0 0 0 0 0 0 0 0 0 0 0 0 0 0 0 0
0 0 0 0 0 0 0 0 0 0 0 0 0 0 0 0 0 0 0 0 0 0 0 0 0 0 0 0 0 0 0 0 0 0 0 0 0 0 0 0 0 0 0 0 0
0 0 0 0 0 0 0 0 0 0 0 0 0 0 0 0 0 0 0 0 0 0 0 0 0 0 0 0 0 0 0 0 0 0 0 0 0 0 0 0 0 0 0 0 0
0 0 0 0 0 0 0 0 0 0 0 0 0 0 0 0 0 0 0 0 0 0 0 0 0 0 0 0 0 0 0 0 0 0 0 0 0 0 0 0 0 0 0 0 0
0 0 0 0 0 0 0 0 0 0 0 0 0 0 0 0 0 0 0 0 0 0 0 0 0 0 0 0 0 0 0 0 0 0 0 0 0 0 0 0 0 0 0 0 0
CIN
-0 -0 -0 -0 -0 -0 -0 -0 -0 -0 -0 -0 -0 -0 -0 -0 -0 -0 -0 -0 -0 -0 -0 -0 -0 -0 -0 -0 -0 -0 -0 -0 -0 -0 -0 -0 -0 -0 -0 -0 -0 -0 -0 -0 -0
-0 -0 -0 -0 -0 -0 -0 -0 -0 -0 -0 -0 -0 -0 -0 -0 -0 -0 -0 -0 -0 -0 -0 -0 -0 -0 -0 -0 -0 -0 -0 -0 -0 -0 -0 -0 -0 -0 -0 -0 -0 -0 -0 -0 -0
-0 -0 -0 -0 -0 -0 -0 -0 -0 -0 -0 -0 -0 -0 -0 -0 -0 -0 -0 -0 -0 -0 -0 -0 -0 -0 -0 -0 -0 -0 -0 -0 -0 -0 -0 -0 -0 -0 -0 -0 -0 -0 -0 -0 -0
-0 -0 -0 -0 -0 -0 -0 -0 -0 -0 -0 -0 -0 -0 -0 -0 -0 -0 -0 -0 -0 -0 -0 -0 -0 -0 -0 -0 -0 -0 -0 -0 -0 -0 -0 -0 -0 -0 -0 -0 -0 -0 -0 -0 -0
-0 -0 -0 -0 -0 -0 -0 -0 -0 -0 -0 -0 -0 -0 -0 -0 -0 -0 -0 -0 -0 -0 -0 -0 -0 -0 -0 -0 -0 -0 -0 -0 -0 -0 -0 -0 -0 -0 -0 -0 -0 -0 -0 -0 -0
-0 -0 -0 -0 -0 -0 -0 -0 -0 -0 -0 -0 -0 -0 -0 -0 -0 -0 -0 -0 -0 -0 -0 -0 -0 -0 -0 -0 -0 -0 -0 -0 -0 -0 -0 -0 -0 -0 -0 -0 -0 -0 -0 -0 -0
-0 -0 -0 -0 -0 -0 -0 -0 -0 -0 -0 -0 -0 -0 -0 -0 -0 -0 -0 -0 -0 -0 -0 -0 -0 -0 -0 -0 -0 -0 -0 -0 -0 -0 -0 -0 -0 -0 -0 -0 -0 -0 -0 -0 -0
-0 -0 -0 -0 -0 -0 -0 -0 -0 -0 -0 -0 -0 -0 -0 -0 -0 -0 -0 -0 -0 -0 -0 -0 -0 -0 -0 -0 -0 -0 -0 -0 -0 -0 -0 -0 -0 -0 -0 -0 -0 -0 -0 -0 -0
-0 -0 -0 -0 -0 -0 -0 -0 -0 -0 -0 -0 -0 -0 -0 -0 -0 -0 -0 -0 -0 -0 -0 -0 -0 -0 -0 -0 -0 -0 -0 -0 -0 -0 -0 -0 -0 -0 -0 -0 -0 -0 -0 -0 -0
-0 -0 -0 -0 -0 -0 -0 -0 -0 -0 -0 -0 -0 -0 -0 -0 -0 -0 -0 -0 -0 -0 -0 -0 -0 -0 -0 -0 -0 -0 -0 -0 -0 -0 -0 -0 -0 -0 -0 -0 -0 -0 -0 -0 -0
-0 -0 -0 -0 -0 -0 -0 -0 -0 -0 -0 -0 -0 -0 -0 -0 -0 -0 -0 -0 -0 -0 -0 -0 -0 -0 -0 -0 -0 -0 -0 -0 -0 -0 -0 -0 -0 -0 -0 -0 -0 -0 -0 -0 -0
-0 -0 -0 -0 -0 -0 -0 -0 -0 -0 -0 -0 -0 -0 -0 -0 -0 -0 -0 -0 -0 -0 -0 -0 -0 -0 -0 -0 -0 -0 -0 -0 -0 -0 -0 -0 -0 -0 -0 -0 -0 -0 -0 -0 -0
-0 -0 -0 -0 -0 -0 -0 -0 -0 -0 -0 -0 -0 -0 -0 -0 -0 -0 -0 -0 -0 -0 -0 -0 -0 -0 -0 -0 -0 -0 -0 -0 -0 -0 -0 -0 -0 -0 -0 -0 -0 -0 -0 -0 -0
-0 -0 -0 -0 -0 -0 -0 -0 -0 -0 -0 -0 -0 -0 -0 -0 -0 -0 -0 -0 -0 -0 -0 -0 -0 -0 -0 -0 -0 -0 -0 -0 -0 -0 -0 -0 -0 -0 -0 -0 -0 -0 -0 -0 -0
-0 -0 -0 -0 -0 -0 -0 -0 -0 -0 -0 -0 -0 -0 -0 -0 -0 -0 -0 -0 -0 -0 -0 -0 -0 -0 -0 -0 -0 -0 -0 -0 -0 -0 -0 -0 -0 -0 -0 -0 -0 -0 -0 -0 -0
-0 -0 -0 -0 -0 -0 -0 -0 -0 -0 -0 -0 -0 -0 -0 -0 -0 -0 -0 -0 -0 -0 -0 -0 -0 -0 -0 -0 -0 -0 -0 -0 -0 -0 -0 -0 -0 -0 -0 -0 -0 -0 -0 -0 -0
-0 -0 -0 -0 -0 -0 -0 -0 -0 -0 -0 -0 -0 -0 -0 -0 -0 -0 -0 -0 -0 -0 -0 -0 -0 -0 -0 -0 -0 -0 -0 -0 -0 -0 -0 -0 -0 -0 -0 -0 -0 -0 -0 -0 -0
-0 -0 -0 -0 -0 -0 -0 -0 -0 -0 -0 -0 -0 -0 -0 -0 -0 -0 -0 -0 -0 -0 -0 -0 -0 -0 -0 -0 -0 -0 -0 -0 -0 -0 -0 -0 -0 -0 -0 -0 -0 -0 -0 -0 -0
-0 -0 -0 -0 -0 -0 -0 -0 -0 -0 -0 -0 -0 -0 -0 -0 -0 -0 -0 -0 -0 -0 -0 -0 -0 -0 -0 -0 -0 -0 -0 -0 -0 -0 -0 -0 -0 -0 -0 -0 -0 -0 -0 -0 -0
-0 -0 -0 -0 -0 -0 -0 -0 -0 -0 -0 -0 -0 -0 -0 -0 -0 -0 -0 -0 -0 -0 -0 -0 -0 -0 -0 -0 -0 -0 -0 -0 -0 -0 -0 -0 -0 -0 -0 -0 -0 -0 -0 -0 -0
-0 -0 -0 -0 -0 -0 -0 -0 -0 -0 -0 -0 -0 -0 -0 -0 -0 -0 -0 -0 -0 -0 -0 -0 -0 -0 -0 -0 -0 -0 -0 -0 -0 -0 -0 -0 -0 -0 -0 -0 -0 -0 -0 -0 -0
-0 -0 -0 -0 -0 -0 -0 -0 -0 -0 -0 -0 -0 -0 -0 -0 -0 -0 -0 -0 -0 -0 -0 -0 -0 -0 -0 -0 -0 -0 -0 -0 -0 -0 -0 -0 -0 -0 -0 -0 -0 -0 -0 -0 -0
-0 -0 -0 -0 -0 -0 -0 -0 -0 -0 -0 -0 -0 -0 -0 -0 -0 -0 -0 -0 -0 -0 -0 -0 -0 -0 -0 -0 -0 -0 -0 -0 -0 -0 -0 -0 -0 -0 -0 -0 -0 -0 -0 -0 -0
-0 -0 -0 -0 -0 -0 -0 -0 -0 -0 -0 -0 -0 -0 -0 -0 -0 -0 -0 -0 -0 -0 -0 -0 -0 -0 -0 -0 -0 -0 -0 -0 -0 -0 -0 -0 -0 -0 -0 -0 -0 -0 -0 -0 -0
-0 -0 -0 -0 -0 -0 -0 -0 -0 -0 -0 -0 -0 -0 -0 -0 -0 -0 -0 -0 -0 -0 -0 -0 -0 -0 -0 -0 -0 -0 -0 -0 -0 -0 -0 -0 -0 -0 -0 -0 -0 -0 -0 -0 -0
-0 -0 -0 -0 -0 -0 -0 -0 -0 -0 -0 -0 -0 -0 -0 -0 -0 -0 -0 -0 -0 -0 -0 -0 -0 -0 -0 -0 -0 -0 -0 -0 -0 -0 -0 -0 -0 -0 -0 -0 -0 -0 -0 -0 -0
-0 -0 -0 -0 -0 -0 -0 -0 -0 -0 -0 -0 -0 -0 -0 -0 -0 -0 -0 -0 -0 -0 -0 -0 -0 -0 -0 -0 -0 -0 -0 -0 -0 -0 -0 -0 -0 -0 -0 -0 -0 -0 -0 -0 -0
Wind_Speed
22 20 20 17 12 13 15 15 15 16 16 17 17 17 17 17 16 12 12 13 12 16 13 11 12 12 15 19 18 15 15 22 20 20 16 15 18 20 18 21 25 22 24 25 29
22 20 20 18 14 14 15 16 16 17 17 18 18 19 18 17 14 16 14 14 13 12 12 12 10 14 17 20 19 20 19 19 20 17 14 16 17 16 18 22 24 25 27 29 31
22 21 20 18 17 16 17 17 17 18 18 18 18 19 18 16 15 15 19 17 14 12 13 11 12 18 21 20 21 20 18 18 21 19 16 17 18 18 17 22 24 27 29 31 33
22 21 20 19 18 18 18 19 18 19 19 18 18 18 16 15 3 16 17 14 12 12 12 11 11 17 19 22 18 20 19 17 18 18 18 18 18 21 22 20 22 24 24 30 34
23 21 20 19 19 19 19 20 20 19 19 18 18 18 17 16 14 16 15 14 11 11 11 10 10 16 18 20 25 22 20 20 19 19 19 18 20 19 21 20 19 22 26 31 36
23 22 21 20 19 20 20 20 20 20 19 18 17 17 17 15 16 15 15 15 12 17 21 16 19 20 20 18 20 19 20 20 19 18 18 18 18 17 20 19 22 26 29 34 37
24 22 22 21 20 20 20 21 21 20 19 18 17 17 14 13 15 14 14 15 16 20 20 20 18 16 18 22 21 21 21 20 17 17 17 17 19 21 20 20 25 27 31 36 36
24 23 22 22 22 21 21 21 21 20 19 19 18 17 16 16 16 15 14 17 19 21 21 21 22 22 20 21 18 19 18 20 14 15 16 18 21 19 20 23 25 28 35 37 35
25 24 23 23 22 22 22 21 19 19 18 18 18 18 16 16 16 16 15 14 17 19 20 19 20 21 19 17 17 15 21 18 17 12 17 15 21 18 19 21 25 31 37 36 32
26 24 24 24 23 23 22 21 19 20 20 21 21 19 18 17 16 16 17 13 11 13 13 14 15 18 21 21 20 21 19 21 21 14 14 15 16 17 19 20 25 33 37 34 30
26 25 25 24 24 23 21 19 17 16 15 17 18 17 16 16 15 16 17 12 11 12 11 15 17 20 21 21 18 17 19 19 19 18 16 12 15 15 16 16 25 33 36 31 27
26 26 25 25 25 24 21 19 16 17 18 17 18 17 18 18 16 18 17 12 13 11 15 14 18 18 17 21 19 18 19 23 19 17 17 16 16 16 15 17 22 32 33 29 25
27 26 25 25 26 22 20 18 18 19 21 17 19 18 17 18 16 19 18 15 17 19 18 16 17 17 18 18 23 18 22 23 19 18 13 16 16 17 16 18 20 30 32 27 25
27 26 25 25 21 17 16 17 17 17 20 12 20 17 17 15 15 17 18 16 15 15 18 18 16 17 16 18 21 21 22 20 17 19 23 18 25 18 17 17 21 33 32 27 25
27 26 25 21 22 19 16 17 17 17 16 11 15 16 15 15 12 16 16 15 18 16 14 15 16 18 18 17 18 18 20 19 17 16 18 18 22 23 19 21 26 33 31 25 25
27 26 25 18 20 19 18 18 18 18 17 13 13 11 9 12 14 13 15 17 16 17 20 16 15 17 16 14 15 17 17 16 18 17 22 20 21 22 21 22 27 32 29 23 25
28 27 24 22 20 21 19 17 18 20 14 13 12 12 14 10 11 11 12 14 15 14 14 14 15 15 15 14 15 16 18 23 22 21 22 20 21 22 20 22 28 32 27 21 22
29 28 24 22 22 21 20 20 24 19 19 14 13 12 11 9 13 11 11 11 15 13 9 11 11 16 17 18 17 18 21 24 22 21 22 19 22 21 19 20 27 29 25 21 21
29 21 21 20 19 19 22 28 23 27 15 14 13 12 10 14 15 9 9 14 15 16 12 11 13 16 17 18 18 19 20 18 18 16 21 20 22 20 18 19 29 29 25 20 22
24 23 25 14 16 20 27 33 28 20 17 16 19 11 14 6 10 8 9 14 13 15 17 17 12 15 16 15 16 17 17 21 20 21 23 21 24 24 21 22 27 28 24 20 20
23 25 18 16 17 25 35 32 29 22 21 20 22 17 20 12 10 10 12 13 13 14 17 17 14 16 17 16 18 17 18 19 19 19 21 22 23 21 21 23 26 26 21 19 19
22 27 17 16 28 28 37 32 25 24 24 23 22 21 19 14 14 14 13 14 13 13 18 16 16 15 17 16 16 16 17 18 20 20 18 19 20 19 20 22 24 24 20 17 19
22 25 20 19 33 35 31 32 28 26 26 24 25 22 19 16 15 15 14 14 12 12 16 16 14 15 16 17 16 15 16 17 18 18 17 20 21 16 17 19 22 22 18 16 20
23 27 22 26 33 31 37 36 33 28 28 26 24 20 18 18 17 14 13 12 11 13 15 16 14 12 13 15 16 15 14 13 15 18 18 13 17 16 17 19 21 21 18 16 18
23 27 25 29 37 38 35 33 38 33 30 27 28 28 22 20 17 16 13 12 12 11 13 15 13 14 10 13 12 11 12 12 11 12 16 18 17 13 18 19 20 19 17 16 16
25 26 27 31 28 35 38 36 38 31 28 31 33 28 26 23 19 14 11 11 13 9 10 13 15 17 16 13 12 10 8 9 10 9 6 6 9 18 19 20 19 19 18 17 15
24 25 27 27 32 34 36 40 35 35 29 29 31 30 26 22 15 15 13 13 9 9 9 12 14 16 15 14 14 11 8 9 13 12 13 14 17 16 17 17 18 19 17 17 16
Wind_Direction
329 323 348 28 149 196 252 254 256 253 249 249 256 262 263 260 249 195 219 241 223 250 227 179 140 116 68 32 27 38 21 359 357 358 5 17 6 12 27 16 14 17 8 2 355
329 321 338 3 326 216 243 249 252 256 255 257 262 264 262 256 207 346 264 254 234 209 168 148 135 71 37 21 27 13 8 6 5 13 17 18 17 23 16 11 6 4 2 360 357
328 320 323 345 311 243 251 253 253 256 256 256 260 262 261 251 204 290 293 278 242 185 160 185 102 40 22 34 23 22 18 27 17 27 34 26 24 18 17 6 6 360 357 357 356
323 321 314 320 298 261 258 261 259 257 254 253 255 254 243 211 144 272 287 274 234 190 167 132 106 44 33 26 42 33 37 35 34 36 38 26 23 16 12 12 11 7 6 360 356
320 316 311 302 286 272 264 267 264 258 253 251 251 246 230 180 247 277 283 274 227 177 142 129 95 52 43 48 36 44 48 43 45 38 37 37 24 25 19 19 17 12 6 1 355
314 311 304 296 279 274 268 268 267 258 252 250 247 244 203 181 238 275 287 301 275 333 12 25 32 38 37 46 39 56 53 52 51 45 46 38 32 27 21 22 14 9 4 360 358
310 307 299 292 282 269 271 268 265 256 252 248 247 242 265 251 248 264 278 315 322 17 32 35 60 51 52 43 61 61 42 48 50 50 39 45 27 22 21 19 10 7 3 1 1
313 301 296 288 280 272 268 268 261 257 258 248 257 239 252 249 254 264 252 340 3 22 35 39 39 34 43 66 61 40 47 31 49 46 42 31 15 22 22 16 12 8 2 1 5
312 300 294 285 282 272 267 266 259 270 275 260 248 217 270 251 239 263 270 327 36 35 40 53 43 48 63 53 42 40 25 30 33 53 35 33 17 28 23 19 13 7 3 5 10
306 301 292 284 281 275 265 253 272 268 254 247 237 227 237 254 264 248 304 190 108 70 75 70 59 55 34 26 26 22 22 24 25 38 33 24 19 24 23 20 15 7 6 9 13
302 300 289 285 278 279 280 279 281 292 299 277 261 259 270 268 259 313 285 105 96 76 78 53 42 29 29 28 30 30 26 23 25 29 25 21 19 23 26 24 15 9 9 13 19
299 297 290 285 277 276 277 279 300 285 294 279 263 269 259 250 219 317 294 77 63 67 47 54 35 36 37 29 32 32 24 20 22 28 26 23 17 26 30 23 16 10 12 15 20
298 295 291 285 276 277 277 290 289 278 270 278 255 260 267 247 297 290 293 31 24 25 29 33 36 41 36 33 25 30 22 16 17 25 26 20 19 27 28 24 17 14 15 17 20
298 293 291 285 284 291 292 294 288 281 279 298 259 269 270 283 320 310 333 31 47 41 33 35 47 41 41 36 27 26 23 21 27 25 19 30 15 25 28 24 22 12 13 18 19
298 292 286 287 276 279 292 285 278 274 293 297 276 268 276 288 352 338 13 48 21 42 55 44 46 39 39 38 38 34 28 32 32 30 21 26 21 26 34 22 16 11 13 21 21
296 290 286 288 278 283 283 279 270 272 280 293 290 291 314 310 317 5 27 20 34 39 25 51 55 48 48 54 52 41 37 36 33 34 24 35 27 23 26 25 17 13 16 26 24
294 288 281 277 273 281 273 270 267 265 277 294 301 291 278 331 339 12 36 41 44 49 53 65 55 59 59 53 54 46 33 29 31 32 28 36 25 25 37 30 19 15 20 33 32
290 285 279 272 274 276 263 260 258 269 265 282 298 297 301 330 324 4 36 49 36 65 90 74 64 54 52 51 47 45 41 35 28 29 24 33 27 27 40 33 23 20 26 36 35
287 292 283 277 274 272 255 249 258 259 277 284 292 298 301 299 310 21 35 4 25 30 70 82 64 56 53 53 52 45 42 45 36 40 28 34 34 38 42 30 21 22 29 38 37
290 284 272 283 274 263 251 246 254 268 269 274 275 296 293 328 323 15 32 4 35 26 13 35 63 53 50 56 56 50 50 38 40 34 29 32 29 25 30 27 22 24 31 40 41
279 271 286 281 269 253 245 248 257 264 265 266 267 281 273 304 312 343 353 359 10 20 5 16 49 45 43 51 45 48 47 45 43 42 33 28 29 39 37 29 25 27 39 44 45
278 264 286 275 251 253 245 251 263 259 261 264 268 272 279 295 306 312 332 341 353 20 347 8 27 41 37 44 49 50 45 43 38 36 38 32 28 46 39 32 31 31 46 52 46
274 271 277 267 249 248 252 252 257 259 259 261 261 269 279 288 300 308 322 332 348 3 345 3 41 39 41 46 52 49 48 47 46 41 37 34 27 48 39 34 37 38 51 56 42
272 266 266 257 252 255 247 249 252 258 260 258 262 270 277 283 287 311 325 333 341 344 344 351 20 41 40 37 43 42 46 51 48 38 36 31 27 34 32 33 38 43 56 60 52
268 265 264 255 249 250 252 253 249 253 257 256 258 259 269 279 288 295 310 320 328 342 351 347 15 21 39 35 42 46 45 51 46 45 37 36 26 20 35 40 43 49 61 63 63
265 264 264 258 260 251 249 250 248 252 255 255 254 261 260 271 280 293 308 310 314 339 348 343 356 6 18 39 47 41 50 54 46 36 15 2 9 49 53 49 49 56 63 63 65
268 267 265 263 255 253 250 248 251 253 257 259 258 258 258 266 286 299 306 311 327 333 331 337 347 359 17 31 31 36 67 69 48 48 46 37 39 55 49 49 50 56 67 68 69